Location: Squamish
(49.7000°N, 123.1500°W)
Time: 01:08:44
(UTC-08:00)

Daily predictions for brighter satellites

Satellite Brightness Start Highest point End
(mag) Time Altitude Azimuth Time Altitude Azimuth Time Altitude Azimuth
Cosmos 2344 4.3 03:45:50 82° N 03:46:22 85° NE 04:00:14 10° SE
Cosmos 2082 Rocket 4.5 03:53:12 18° NE 03:53:12 18° NE 03:54:32 10° NNE
Cosmos 2360 Rocket 3.9 04:15:36 27° NE 04:16:00 27° NE 04:20:47 10° ESE
CZ-4C R/B 3.5 04:20:26 36° ESE 04:20:26 36° ESE 04:25:48 10° NE
USA 267 3.7 04:25:52 10° ENE 04:32:16 54° SE 04:33:11 50° SSE
ATLAS 5 CENTAUR R/B 3.8 04:42:32 25° NNE 04:42:57 25° NNE 04:47:54 10° ENE
SeaSat 1 3.5 04:44:40 10° NE 04:49:23 43° ESE 04:51:13 30° SSE
Cosmos 1025 Rocket 4.5 04:50:19 35° ESE 04:50:19 35° ESE 04:53:28 10° SE
BREEZE-M DEB (TANK) 3.7 04:48:33 70° W 04:49:31 88° S 04:53:25 10° E
Nadezhda 4 Rocket 4.2 04:45:49 10° S 04:51:52 66° E 04:57:56 10° NNE
SL-16 R/B 2.2 05:02:18 71° S 05:02:18 71° S 05:07:21 10° SSE
Cosmos 2322 Rocket 2.1 05:06:03 74° SSW 05:06:03 74° SSW 05:11:19 10° SSE
USA 234 3.1 05:03:12 10° SE 05:09:46 81° SSW 05:11:04 60° WNW
COSMO-SKYMED 1 3.0 05:13:47 10° SSE 05:17:13 56° SSE 05:17:13 56° SSE
NOAA 6 4.3 05:18:24 10° NNE 05:23:32 67° ESE 05:28:38 10° S
IRS-1C Rocket 4.2 05:20:24 10° N 05:24:49 55° NNW 05:24:49 55° NNW
Cosmos 1500 3.7 05:23:33 10° S 05:27:19 58° E 05:31:06 10° NNE
Meteor 1-11 Rocket 4.0 05:29:35 49° NW 05:29:35 49° NW 05:34:27 10° N
ATLAS CENTAUR R/B 4.5 05:29:32 10° SE 05:30:58 12° ESE 05:32:23 10° E
Cosmos 773 Rocket 3.8 05:29:40 38° SSW 05:31:41 81° WNW 05:36:54 10° NNE
Okean 1 Rocket 3.0 05:28:18 10° S 05:32:42 88° E 05:37:10 10° N
Cosmos 1833 Rocket 4.0 05:34:32 23° NNW 05:34:32 23° NNW 05:37:34 10° NNE
Cosmos 2322 4.0 05:30:04 28° NNW 05:33:05 64° ENE 05:38:41 10° SE
Cosmos 2082 Rocket 3.5 05:35:05 25° NNW 05:35:05 25° NNW 05:38:21 10° NNE
Okean-O 2.7 05:29:02 10° NNE 05:33:30 75° ESE 05:37:55 10° S
Feng Yun 1-1 Rocket 4.4 05:28:24 10° NNE 05:34:16 80° ESE 05:39:56 10° SSW
Timation 2 Rocket 4.1 05:30:43 28° SW 05:34:37 70° NW 05:41:27 10° NNE
Cosmos 1092 Rocket 3.8 05:29:01 10° S 05:35:10 87° W 05:41:23 10° N
Meteor 1-5 Rocket 4.0 05:32:51 10° SSW 05:38:11 62° WNW 05:43:28 10° N
Meteor 2-11 Rocket 4.3 05:33:10 10° NNW 05:39:18 82° W 05:45:22 10° S
Aureole 2 Rocket 4.2 05:42:56 22° NNE 05:44:08 27° ENE 05:46:53 10° ESE
Cosmos 2026 Rocket 4.2 05:40:20 10° S 05:46:37 75° E 05:53:00 10° NNE
Cosmos 1892 Rocket 3.9 05:44:20 15° N 05:47:59 63° ENE 05:52:18 10° SSE
DMSP B5D1-3 4.4 05:43:12 10° S 05:48:22 78° WSW 05:52:03 20° NNW
Cosmos 1680 Rocket 3.9 05:43:18 10° S 05:48:26 64° ESE 05:53:38 10° NNE
ERBS 3.7 05:50:04 29° NNE 05:50:04 29° NNE 05:53:04 10° E
Cosmos 1553 Rocket 4.2 05:46:58 10° N 05:53:15 71° E 05:59:22 10° SSE
CZ-4B R/B 3.9 05:49:11 10° N 05:53:35 34° NW 05:53:35 34° NW
Cosmos 1655 Rocket 4.4 05:51:47 10° S 05:57:58 66° E 06:04:14 10° NNE
IDEFIX/ARIANE 42P 2.4 05:53:29 10° NNE 05:58:43 82° WNW 06:03:57 10° SSW
Cosmos 1666 4.0 05:55:46 10° SSE 05:59:22 41° E 06:02:59 10° NNE
Cosmos 2360 Rocket 2.1 05:57:24 27° NW 06:00:32 70° WSW 06:06:10 10° SSE
Cosmos 2333 Rocket 3.4 05:57:10 12° NNW 06:02:10 40° NE 06:07:33 10° ESE
Cosmos 1627 Rocket 4.5 05:56:18 10° SSW 06:02:40 80° W 06:09:07 10° N
Cosmos 1371 Rocket 3.9 05:59:01 20° NNW 06:02:41 90° ENE 06:07:52 10° SSE
COSMOS 2428 3.0 06:00:53 16° NNW 06:05:31 66° ENE 06:11:13 10° SE
Cosmos 1066 Rocket 4.0 06:01:12 13° NNW 06:05:59 66° W 06:11:21 10° S
SKYMED 2 4.4 06:02:27 10° SSW 06:05:49 31° WSW 06:05:49 31° WSW
Cosmos 2219 Rocket 3.0 06:03:31 12° NNW 06:08:32 48° NE 06:14:01 10° SE
CZ-4C R/B 2.4 06:05:41 27° WSW 06:08:39 55° NW 06:14:54 10° NE
Cosmos 1184 Rocket 4.3 06:14:44 23° SW 06:14:44 23° SW 06:16:26 10° SSW
Cosmos 2333 4.4 06:08:56 15° NNW 06:13:52 73° ENE 06:19:38 10° SE
CZ-4 R/B 3.5 06:11:03 10° NNE 06:14:49 31° E 06:18:36 10° SSE
USA 267 3.2 06:08:57 10° ENE 06:15:26 68° NNW 06:20:33 17° WSW
Thor Agena Rocket 3.4 06:14:50 10° S 06:19:54 75° WSW 06:25:02 10° NNW
Cosmos 923 Rocket 4.0 06:15:55 10° SW 06:21:05 58° WNW 06:26:15 10° NNE
APEX 3.3 06:18:31 10° SW 06:22:11 72° NW 06:26:56 10° NNE
SAR-Lupe-3 4.4 06:21:32 10° S 06:25:07 76° WSW 06:28:09 14° NNW
Meteor 1-4 Rocket 4.0 06:28:02 22° NW 06:28:02 22° NW 06:29:59 10° N
Cosmos 1025 Rocket 4.2 06:27:16 22° W 06:27:16 22° W 06:30:11 10° SW
SeaSat 1 2.9 06:22:19 10° NNE 06:26:52 37° NW 06:31:04 12° WSW
Cosmos 1455 Rocket 3.2 06:22:30 10° S 06:26:57 78° E 06:31:26 10° NNE
Cosmos 2237 Rocket 3.4 06:22:52 10° NNW 06:28:12 39° NE 06:33:28 10° ESE
CZ-2C R/B 2.3 06:23:50 10° N 06:28:37 58° WNW 06:33:14 10° SSW
ATLAS 5 CENTAUR R/B 2.7 06:24:05 17° NW 06:28:39 63° NE 06:35:00 10° SE
Cosmos 1544 Rocket 3.5 06:27:05 10° S 06:31:31 88° W 06:35:59 10° N
Lacrosse 5 4.4 06:28:37 10° S 06:32:36 24° SE 06:36:35 10° ENE
PAYLOAD A 4.4 06:28:15 10° N 06:33:24 44° WNW 06:38:25 10° SW
Cosmos 1975 3.0 06:29:57 10° SSW 06:33:47 46° WNW 06:37:40 10° N
Cosmos 2112 Rocket 3.9 06:32:07 10° SW 06:37:16 63° WNW 06:42:28 10° NNE
Cosmos 2056 Rocket 3.5 06:35:12 13° NNW 06:39:45 58° WSW 06:44:47 10° S
SJ-12 4.0 06:38:05 10° N 06:42:04 52° WNW 06:46:01 10° SSW
SL-16 R/B 3.8 06:44:13 14° W 06:44:53 15° W 06:47:53 10° SW
Cosmos 2219 4.4 06:39:58 10° S 06:45:19 46° ESE 06:50:42 10° NE
CSL-04 Rocket 3.8 06:43:05 10° NNE 06:48:42 85° ESE 06:54:15 10° SSW
Cosmos 2322 Rocket 3.8 06:47:55 14° W 06:48:45 14° W 06:51:35 10° SW
Cosmos 921 Rocket 4.0 06:45:25 10° N 06:49:27 44° ENE 06:53:30 10° SE
SMAP 3.1 06:45:16 10° NNE 06:49:58 87° E 06:54:38 10° SSW
Cosmos 1743 2.9 06:46:27 10° SSW 06:50:08 45° WNW 06:53:51 10° N
SJ-7 4.3 06:47:37 10° N 06:51:41 70° WNW 06:55:46 10° SSW
Cosmos 1452 Rocket 3.7 06:46:49 10° NNW 06:52:09 79° ENE 06:57:26 10° SSE
Cosmos 1356 Rocket 3.9 06:48:26 10° N 06:52:30 60° ENE 06:56:36 10° SSE
USA 234 4.3 06:47:56 10° S 06:53:26 28° SW 06:58:25 12° WNW
Cosmos 2285 Rocket 4.2 06:48:23 10° SW 06:54:28 49° WNW 07:00:35 10° NNE
Cosmos 1842 3.3 06:50:40 10° NNW 06:54:36 63° W 06:58:30 10° S
Cosmos 1484 Rocket 2.7 06:51:40 10° N 06:55:31 61° WNW 06:59:17 10° SSW
Ariane Rocket 3.0 06:53:03 10° NNE 06:58:09 89° WNW 07:03:14 10° SSW
IRAS Rocket 4.3 06:54:27 10° NNE 07:00:02 87° ESE 07:05:37 10° SSW
ALOS 3.7 07:01:03 10° NNE 07:05:30 42° E 07:09:55 10° S
S3M 4.4 06:59:47 10° NNW 07:05:32 42° W 07:11:20 10° SSW
Cosmos 389 Rocket 3.4 07:04:21 10° SW 07:07:32 29° WNW 07:10:42 10° N
Cosmos 1980 3.9 07:03:35 10° NNW 07:09:17 75° ENE 07:14:58 10° SE
ATLAS CENTAUR R/B 1.0 07:05:40 10° SW 07:09:21 80° NW 07:13:04 10° NE
Okean-O 4.1 07:06:41 10° NNW 07:09:27 16° WNW 07:12:12 10° W
Cosmos 1238 Rocket 4.0 07:04:11 10° NNW 07:10:43 63° W 07:16:29 10° S
Aureole 1 Rocket 2.4 07:12:23 10° SSW 07:15:34 75° WNW 07:19:33 10° NNE
MSX 4.4 07:11:12 10° N 07:16:22 36° WNW 07:21:31 10° SW
Genesis I 3.4 07:12:21 10° NW 07:16:22 64° SW 07:20:22 10° SSE
Aureole 2 Rocket 3.7 07:16:22 10° NW 07:18:56 21° WSW 07:21:21 10° SSW
Cosmos 2082 Rocket 4.2 07:18:52 10° NNW 07:19:41 10° NNW 07:20:29 10° N
Cosmos 1340 Rocket 3.9 07:18:42 10° NW 07:21:57 24° W 07:25:12 10° SW
GEOS 3 Rocket 3.8 07:16:41 10° NE 07:22:08 86° SE 07:27:32 10° SW
Cosmos 1271 Rocket 3.6 07:19:03 10° SW 07:22:17 27° WNW 07:25:33 10° N
Cosmos 1626 Rocket 4.1 07:19:26 10° NNW 07:23:29 38° W 07:27:31 10° SSW
MONITOR-E 4.2 07:20:26 10° NNE 07:23:31 84° ESE 07:26:35 10° SSW
CORIOLIS 4.1 07:18:39 10° N 07:23:58 66° WNW 07:29:15 10° SSW
YAOGAN 1 2.5 07:20:59 10° N 07:25:20 76° WNW 07:29:40 10° SSW
SL-16 R/B 3.2 07:19:53 10° NNW 07:25:21 45° NE 07:30:48 10° SE
ERBS 2.3 07:23:33 10° WNW 07:26:56 78° SW 07:30:17 10° SE
